Theta_e
322 322 321 321 322 322 322 321 322 321 320 321 320 320 320 321 320 320 319 319 320 320 320 320 320 320 320 320 320 320 320 320 320 320 319 319 319 319 318 318 318 318
321 321 320 321 321 321 322 323 322 322 321 321 321 322 321 321 320 319 319 319 318 319 319 320 319 319 319 319 319 319 319 319 318 319 319 318 318 319 318 318 318 319
322 321 321 320 321 321 322 322 323 323 322 322 322 322 322 321 320 319 320 319 319 318 319 319 319 319 319 319 319 318 318 318 318 318 317 318 318 318 318 318 318 318
322 322 322 321 322 322 322 322 322 322 323 322 322 322 322 321 321 319 320 316 320 319 319 319 319 319 319 319 319 318 318 318 319 319 317 317 317 318 318 318 317 317
322 322 322 322 322 322 322 321 321 322 322 322 323 322 321 320 320 320 320 319 320 320 320 319 320 320 320 319 319 318 318 318 319 319 318 317 317 317 318 318 317 316
322 322 322 322 322 322 321 321 321 322 322 322 322 322 321 321 321 321 320 320 319 320 320 320 320 320 320 320 319 319 319 318 318 318 317 317 317 317 317 317 316 315
321 321 321 322 322 322 322 322 322 321 322 322 322 321 321 320 320 321 321 320 320 319 320 320 320 320 320 320 319 319 319 318 318 317 317 316 315 315 316 316 315 314
320 320 321 321 321 321 321 322 322 321 322 321 320 322 321 321 321 321 321 320 320 320 320 320 320 321 320 320 318 318 318 319 318 316 315 316 316 315 314 314 314 313
317 317 317 317 318 319 319 320 321 320 320 320 320 320 320 321 321 321 320 320 320 320 320 319 320 320 320 319 318 318 317 317 318 317 316 315 314 314 314 314 312 311
314 314 312 313 315 317 317 318 319 318 317 318 320 320 318 319 321 320 319 319 319 318 318 318 318 318 318 318 319 317 317 318 316 316 315 315 315 314 314 313 311 310
310 310 310 311 312 314 314 315 315 314 313 315 318 318 319 318 317 318 319 318 318 318 317 317 317 317 318 317 318 318 317 317 316 315 314 314 314 314 307 311 309 308
307 307 308 310 310 310 311 311 311 311 312 313 316 319 317 317 317 316 317 317 317 317 317 317 317 317 317 317 316 315 315 315 315 314 313 313 313 313 313 311 310 310
306 306 308 308 307 308 306 306 307 309 310 311 311 314 316 315 315 315 314 316 316 316 316 316 317 316 316 316 315 314 313 312 312 312 311 311 311 311 310 309 309 308
304 304 305 306 305 304 305 305 305 305 307 308 307 310 312 313 313 314 314 313 315 315 316 316 316 315 314 313 312 312 312 311 311 310 310 309 307 307 306 305 304 303
300 300 300 301 301 302 303 303 303 304 303 304 304 306 308 310 311 312 312 311 312 313 313 312 313 312 312 311 311 310 311 310 310 309 308 307 304 300 298 299 298 298
296 297 298 299 300 301 301 300 300 299 300 299 301 302 303 304 305 307 308 309 308 307 307 308 309 311 302 302 303 309 309 309 308 306 305 304 300 297 294 293 294 293
294 295 296 297 299 299 298 297 298 296 297 297 298 298 299 299 299 301 301 303 305 306 304 305 306 306 299 301 301 302 306 307 305 304 302 299 298 297 295 292 290 291
293 294 295 296 295 296 296 295 295 294 295 296 296 295 295 294 296 298 299 299 301 301 302 302 303 298 300 300 300 300 300 304 304 302 299 297 296 296 295 292 291 290
293 293 294 294 294 294 294 293 293 294 294 294 294 294 293 294 297 297 297 297 298 299 299 298 298 297 298 299 299 299 299 300 302 300 296 295 295 295 294 292 290 289
292 292 293 294 293 293 293 293 293 295 294 294 293 291 293 294 294 295 295 295 296 297 298 296 296 294 296 297 297 297 298 299 299 297 295 294 294 293 292 291 290 290
292 292 292 293 293 292 292 293 294 294 292 292 292 292 293 294 293 293 292 293 293 293 294 294 295 293 295 296 296 297 297 297 294 293 292 291 291 291 291 291 291 291
291 291 292 292 292 292 292 293 293 293 292 290 290 291 291 291 291 291 292 291 291 292 292 293 291 292 294 294 295 296 296 293 292 291 291 290 290 290 290 290 290 290
292 292 292 292 292 292 292 292 292 291 290 289 290 290 290 290 290 289 290 291 290 290 292 292 290 291 293 293 294 295 293 291 290 290 289 289 289 289 289 289 290 290
292 293 292 292 292 292 292 292 291 290 290 289 291 290 289 289 289 289 289 290 290 290 291 292 290 289 291 293 294 294 292 291 290 290 289 288 288 288 289 289 288 286
293 293 293 292 292 292 292 291 290 290 290 289 290 290 290 289 289 290 288 288 288 289 288 291 290 288 290 292 293 293 291 290 290 290 288 287 287 287 286 286 286 286
292 292 292 292 291 291 291 290 290 290 289 289 289 290 290 289 289 289 288 288 287 287 288 289 289 289 289 292 292 292 291 290 290 290 288 287 287 287 286 285 285 286
Wind_Speed
16 13 14 11 11 12 12 11 8 9 9 11 10 12 12 11 9 12 13 11 11 12 12 11 11 11 10 11 11 11 11 13 12 11 13 12 12 13 12 12 12 11
16 15 12 12 10 10 10 11 12 10 11 9 9 8 9 9 10 11 12 10 11 10 9 10 11 12 11 10 11 11 11 10 12 8 10 13 11 11 13 13 13 12
15 14 15 15 13 15 14 12 12 11 9 10 10 9 9 9 10 11 11 11 11 11 12 8 10 11 11 11 10 10 11 11 11 10 10 12 11 11 11 12 11 12
15 15 14 15 15 14 13 11 11 11 10 9 11 10 9 9 10 11 10 11 11 11 11 11 11 10 11 11 11 10 11 11 10 10 11 10 11 12 12 11 12 11
15 15 14 14 14 13 11 11 13 12 12 12 9 9 9 9 10 10 10 11 11 11 11 11 11 11 11 10 11 10 11 10 10 10 10 11 11 11 11 10 11 12
13 13 13 13 13 12 12 12 13 12 12 11 11 8 9 10 10 11 11 11 11 11 11 10 11 11 11 11 11 11 10 10 10 11 11 11 11 10 10 10 10 10
14 13 14 12 13 12 12 12 12 11 11 11 8 9 9 9 10 11 11 11 11 11 11 11 11 11 10 10 10 11 11 11 11 12 12 10 9 10 10 10 11 12
13 10 11 11 12 11 12 12 12 11 11 9 10 10 9 10 11 10 10 11 11 11 11 11 11 11 10 10 10 11 11 10 11 11 11 11 11 11 10 10 11 11
8 9 9 9 11 11 12 12 12 11 9 10 10 9 9 10 11 10 10 11 11 11 11 11 11 11 10 11 11 11 11 10 10 11 12 11 11 11 11 10 10 10
10 9 9 10 11 12 13 12 11 9 8 10 10 9 9 10 10 11 10 11 11 11 11 10 11 11 10 10 11 10 10 11 11 11 11 11 11 11 10 10 11 11
10 9 10 11 12 10 11 11 10 9 8 10 9 10 11 10 10 10 11 12 12 12 11 11 11 10 11 10 10 11 11 11 10 10 10 10 11 11 10 9 9 9
10 9 10 12 11 10 10 9 8 8 9 9 11 12 10 10 11 10 11 11 11 11 11 11 11 10 11 11 11 10 10 10 10 9 9 9 9 9 10 9 10 10
10 11 10 9 9 9 7 7 9 9 9 10 9 10 10 10 10 11 10 11 11 11 11 11 11 11 10 11 11 9 9 9 9 9 9 8 9 9 9 8 8 8
9 7 8 8 7 6 7 8 8 8 9 8 8 10 10 11 11 11 10 10 10 11 11 10 10 10 11 10 9 8 8 9 9 9 9 8 7 8 8 7 7 7
6 6 6 7 7 7 8 8 8 7 7 7 8 9 9 9 9 10 10 10 10 10 9 9 10 10 9 8 8 8 8 8 8 9 9 8 7 6 5 5 5 5
7 6 7 6 7 9 8 7 7 7 8 8 8 8 8 8 8 8 9 10 10 9 8 8 8 7 10 14 12 9 8 8 7 8 7 7 6 5 4 3 4 4
7 8 7 8 8 7 7 7 8 7 8 8 8 8 9 8 8 9 8 7 8 8 9 8 8 7 12 13 13 13 9 7 7 7 6 6 6 6 7 6 4 3
8 7 8 8 7 8 8 7 7 7 8 8 8 8 8 6 7 8 7 7 7 7 8 8 7 9 13 13 13 14 11 7 6 6 6 6 6 7 6 6 6 4
7 8 8 8 8 7 7 7 8 8 8 8 9 7 5 8 8 7 8 7 7 8 7 7 6 9 12 13 13 13 13 10 6 6 7 6 7 7 7 7 6 6
8 9 9 8 7 7 7 7 8 9 7 6 6 5 7 7 6 8 7 7 7 7 7 6 7 8 12 12 12 13 13 10 6 6 6 6 7 7 6 7 8 7
9 9 9 8 8 7 7 8 8 6 7 7 6 7 8 8 7 7 6 6 7 6 5 6 7 9 10 11 11 12 12 8 5 5 5 4 4 5 6 7 8 7
10 10 9 8 9 8 8 9 8 8 7 5 4 4 3 3 3 4 6 5 5 6 6 6 4 8 10 9 10 10 11 6 6 6 5 5 6 5 5 5 6 7
10 10 10 10 10 10 10 10 8 7 5 4 4 4 4 4 4 3 3 5 5 5 6 6 5 6 9 10 11 13 9 6 7 5 5 6 6 6 5 5 5 6
10 11 11 11 11 13 12 9 7 5 6 4 5 4 4 4 4 3 3 4 6 7 7 7 5 6 9 10 13 14 11 8 7 7 6 5 5 4 4 5 5 8
10 10 10 11 13 12 10 10 10 9 6 6 6 5 6 5 4 5 4 3 4 5 7 8 6 7 10 11 13 14 10 6 7 6 7 5 5 6 4 4 5 6
9 11 11 10 12 9 9 10 8 7 8 8 7 6 6 6 5 5 6 4 3 4 5 5 7 5 7 12 13 13 12 8 6 8 7 7 6 7 7 3 4 5
Wind_Direction
213 212 213 210 216 217 214 209 205 206 210 214 214 215 212 213 190 198 203 204 206 209 210 210 211 213 213 213 211 213 217 220 220 217 214 215 221 220 221 219 218 218
214 213 212 215 220 220 220 212 211 208 214 210 212 211 209 196 198 194 200 200 203 207 200 206 210 211 211 210 210 211 218 218 222 208 212 215 221 218 223 222 222 222
213 212 212 213 216 217 215 214 214 215 216 215 215 211 205 197 195 199 198 198 201 204 207 201 210 212 210 209 206 210 216 216 219 207 209 217 218 218 220 222 224 222
214 213 213 217 219 220 214 211 216 219 217 217 213 206 200 197 193 195 196 193 199 199 200 202 207 209 209 210 206 212 216 217 216 208 211 214 216 217 219 218 221 222
211 212 214 217 220 221 214 212 217 216 215 219 212 197 194 190 191 193 192 194 198 199 197 200 203 208 207 209 208 213 215 217 214 213 213 216 216 215 220 218 220 222
214 215 215 217 217 214 214 215 219 215 216 216 214 194 198 190 191 193 191 193 197 199 200 200 202 207 206 208 208 213 213 213 214 213 217 218 218 213 216 216 219 222
214 211 214 214 217 214 215 218 221 216 215 217 198 203 193 190 196 196 194 195 196 199 201 201 203 207 206 208 210 213 213 212 212 212 215 218 216 216 214 214 218 221
218 214 214 214 216 215 215 218 220 216 214 203 204 208 192 196 199 197 195 195 198 202 206 205 204 205 204 208 213 215 216 214 213 211 214 216 212 217 214 214 216 220
219 218 212 212 213 215 217 217 219 216 206 206 207 207 197 197 200 197 196 198 200 204 206 208 208 209 207 210 215 215 216 213 211 211 213 214 215 216 215 213 216 218
215 214 206 209 212 215 217 216 216 212 200 206 207 203 198 202 201 199 199 200 204 206 208 207 209 212 214 213 215 214 216 216 215 212 213 215 216 217 217 213 212 214
219 210 210 213 217 216 218 215 214 206 194 202 203 205 203 200 204 203 202 203 207 207 207 210 212 212 215 216 216 217 218 217 215 213 213 215 216 217 216 209 209 212
219 211 215 218 217 218 217 213 206 203 202 205 205 209 206 205 203 205 205 206 207 208 208 210 211 213 215 217 218 216 214 214 213 212 212 213 214 216 216 209 207 212
215 214 213 216 215 215 208 204 207 206 202 207 204 209 207 208 207 205 207 206 208 209 211 211 212 212 213 218 219 211 208 208 211 212 212 211 213 215 215 211 211 213
217 213 213 215 213 209 207 208 206 205 207 205 195 206 211 209 205 206 207 207 210 210 211 208 211 215 216 214 206 200 202 209 208 207 208 211 214 214 208 203 201 198
212 211 209 209 206 206 207 206 204 204 202 200 200 208 210 211 207 204 206 209 213 212 211 209 210 210 204 201 205 206 205 205 206 207 205 207 212 213 206 201 198 189
208 210 208 206 205 207 207 200 198 198 196 201 206 205 206 206 208 208 208 207 206 209 208 204 207 206 202 201 200 197 195 202 202 202 200 202 199 195 193 185 181 176
198 208 202 209 211 207 204 200 200 196 199 203 204 201 203 204 201 205 209 205 202 201 205 209 207 203 202 202 202 198 192 194 194 196 195 189 184 181 190 183 175 168
193 196 201 210 204 211 205 205 200 199 203 202 200 202 205 192 199 205 201 202 204 204 204 204 207 204 200 202 201 199 192 188 188 183 176 179 178 183 182 170 166 156
191 198 205 205 207 203 200 194 196 198 198 195 200 197 180 193 205 197 206 202 199 201 206 203 207 204 200 199 198 194 189 179 176 167 167 180 181 179 169 162 154 154
191 195 203 205 197 196 190 191 191 198 194 190 180 175 187 194 193 197 197 196 196 196 199 198 202 201 196 193 189 182 176 170 168 164 168 170 174 165 159 158 159 160
195 196 200 194 191 190 190 197 196 194 190 190 181 181 185 189 185 188 194 190 187 186 187 189 197 185 183 179 179 175 168 153 136 134 135 143 145 152 159 161 162 162
192 196 194 186 185 186 192 198 197 191 190 187 183 186 191 171 194 184 181 187 184 172 171 194 198 182 175 174 167 160 144 127 133 137 137 137 144 156 161 156 154 152
195 190 191 187 183 186 194 195 189 188 184 167 178 190 185 194 192 180 178 181 177 183 179 184 187 187 172 164 157 149 138 133 133 129 137 149 159 160 153 150 155 162
198 189 190 187 184 193 194 187 175 172 179 167 183 184 199 196 176 184 192 188 181 186 186 172 188 186 172 162 157 157 155 153 154 146 150 150 140 142 146 150 157 163
199 194 193 191 193 195 185 179 180 179 166 165 186 183 191 179 181 181 182 191 199 192 188 179 174 182 175 167 165 160 153 149 147 143 147 159 156 151 127 125 140 170
200 200 199 199 200 187 182 182 168 165 177 178 183 183 181 178 180 181 177 186 178 180 184 182 166 168 174 169 166 162 156 151 152 147 158 165 169 163 160 162 165 169